This demonstration page uses our WeatherBlox Daily Observations layout. Learn more.

Left ArrowRight Arrow

53.62937, 11.41316

Hourly Observations for April 13, 2022

Temp ( °F °C ) Dew Point ( °F °C ) Humidity (%) Winds ( mph kmh ) Pressure ( in mb ) Visibility ( mi km ) Precip ( " mm )
12:20 am 00:20 Mostly Clear 50 10 34 1 54 54 E 6 9 29.97 1015 30 48 N/A
12:50 am 00:50 Mostly Clear 50 10 34 1 54 54 E 6 9 29.97 1015 30 48 N/A
1:20 am 01:20 Mostly Clear 50 10 32 0 50 50 ESE 6 9 29.97 1015 30 48 N/A
1:50 am 01:50 Mostly Clear 50 10 32 0 50 50 ESE 8 13 29.97 1015 30 48 N/A
2:20 am 02:20 Mostly Clear 50 10 32 0 50 50 SE 7 11 29.94 1014 30 48 N/A
2:50 am 02:50 Mostly Clear 50 10 32 0 50 50 SE 7 11 29.94 1014 30 48 N/A
3:20 am 03:20 Mostly Clear 50 10 32 0 50 50 ESE 6 9 29.94 1014 30 48 N/A
3:50 am 03:50 Mostly Clear 50 10 32 0 50 50 SE 6 9 29.94 1014 30 48 N/A
4:20 am 04:20 Mostly Clear 48 9 32 0 54 54 SE 7 11 29.94 1014 30 48 N/A
4:50 am 04:50 Mostly Clear 48 9 32 0 54 54 SE 7 11 29.94 1014 30 48 N/A
5:20 am 05:20 Mostly Clear 48 9 34 1 58 58 SE 9 15 29.94 1014 30 48 N/A
5:50 am 05:50 Mostly Clear 48 9 34 1 58 58 SE 8 13 29.92 1013 30 48 N/A
6:20 am 06:20 Mostly Clear 48 9 34 1 58 58 SE 9 15 29.94 1014 7 11 N/A
6:50 am 06:50 Mostly Sunny 48 9 34 1 58 58 SSE 9 15 29.94 1014 7 11 N/A
7:20 am 07:20 Mostly Sunny 48 9 34 1 58 58 SSE 7 11 29.94 1014 7 11 N/A
7:50 am 07:50 Mostly Sunny 48 9 34 1 58 58 SE 8 13 29.94 1014 7 11 N/A
8:20 am 08:20 Mostly Sunny 50 10 34 1 54 54 SSE 8 13 29.94 1014 7 11 N/A
8:50 am 08:50 Mostly Sunny 50 10 34 1 54 54 SSE 8 13 29.94 1014 7 11 N/A
9:20 am 09:20 Mostly Sunny 50 10 36 2 58 58 SSE 8 13 29.97 1015 7 11 N/A
9:50 am 09:50 Mostly Sunny 52 11 36 2 54 54 SSE 7 11 29.97 1015 7 11 N/A
10:20 am 10:20 Mostly Sunny 52 11 37 3 58 58 SE 6 9 29.97 1015 7 11 N/A
10:50 am 10:50 Mostly Sunny 55 13 37 3 51 51 SSE 7 11 29.97 1015 7 11 N/A
11:20 am 11:20 Mostly Sunny 59 15 39 4 48 48 VRB 3 6 29.97 1015 7 11 N/A
11:50 am 11:50 Mostly Sunny 61 16 43 6 52 52 SSE 5 7 29.97 1015 7 11 N/A
12:20 pm 12:20 Mostly Sunny 61 16 41 5 48 48 VRB 3 6 29.97 1015 7 11 N/A
12:50 pm 12:50 Mostly Sunny 63 17 43 6 49 49 VRB 5 7 29.97 1015 7 11 N/A
1:20 pm 13:20 Mostly Sunny 64 18 43 6 46 46 VRB 5 7 29.97 1015 7 11 N/A
1:50 pm 13:50 Mostly Sunny 64 18 46 8 52 52 SW 6 9 30.00 1016 7 11 N/A
2:20 pm 14:20 Mostly Sunny 66 19 45 7 46 46 VRB 6 9 29.97 1015 7 11 N/A
2:50 pm 14:50 Mostly Sunny 66 19 46 8 49 49 VRB 5 7 29.97 1015 7 11 N/A
3:20 pm 15:20 Mostly Sunny 68 20 46 8 46 46 VRB 5 7 29.97 1015 7 11 N/A
3:50 pm 15:50 Mostly Sunny 68 20 46 8 46 46 S 3 6 29.97 1015 7 11 N/A
4:20 pm 16:20 Mostly Sunny 70 21 48 9 46 46 VRB 3 6 29.97 1015 7 11 N/A
4:50 pm 16:50 Mostly Sunny 70 21 46 8 43 43 WSW 5 7 29.97 1015 7 11 N/A
5:20 pm 17:20 Mostly Sunny 68 20 48 9 49 49 W 6 9 30.00 1016 7 11 N/A
5:50 pm 17:50 Mostly Sunny 68 20 50 10 53 53 NW 5 7 30.00 1016 7 11 N/A
6:20 pm 18:20 Mostly Sunny 68 20 48 9 49 49 NW 6 9 30.00 1016 7 11 N/A
6:50 pm 18:50 Mostly Sunny 66 19 52 11 60 60 NW 7 11 30.00 1016 7 11 N/A
7:20 pm 19:20 Mostly Sunny 64 18 52 11 64 64 NNW 9 15 30.00 1016 7 11 N/A
7:50 pm 19:50 Mostly Sunny 63 17 52 11 68 68 NNW 7 11 30.00 1016 7 11 N/A
8:20 pm 20:20 Mostly Clear 61 16 50 10 68 68 NW 6 9 30.03 1017 7 11 N/A
8:50 pm 20:50 Mostly Clear 61 16 50 10 68 68 NW 6 9 30.03 1017 7 11 N/A
9:50 pm 21:50 Mostly Cloudy 59 15 50 10 72 72 NW 6 9 30.06 1018 30 48 N/A
10:20 pm 22:20 Mostly Cloudy 57 14 48 9 72 72 NNW 6 9 30.06 1018 30 48 N/A
10:50 pm 22:50 Mostly Cloudy 57 14 48 9 72 72 NW 6 9 30.06 1018 30 48 N/A
11:20 pm 23:20 Cloudy 55 13 50 10 82 82 W 7 11 30.09 1019 30 48 N/A
11:50 pm 23:50 Mostly Cloudy 54 12 52 11 94 94 W 9 15 30.09 1019 6 9 N/A

Powered by AerisWeather